#timestamp,LO_Frequency,Hit,StdDev 
1457870415.9,286046995.3,N
1457870435.7,286046996.1,N
1457870455.5,286046993.2,N
1457870475.4,286046994.0,N
1457870495.2,286046993.1,N
1457870515.0,286046992.4,N
1457870515.9,286046992.4,N
1457870535.8,286046992.7,N
1457870555.6,286046992.6,N
1457870575.4,286046994.0,N
1457870595.2,286046993.4,N
1457870615.1,286046995.6,N
1457870616.0,286046995.6,N
1457870635.8,286046992.1,N
1457870655.6,286046991.3,N
1457870675.5,286046985.4,Y
1457870695.3,286046987.6,P
1457870715.1,286046989.9,N
1457870735.9,286046991.0,N
1457870755.7,286046993.1,N
1457870775.5,286046990.9,N
1457870795.4,286046987.3,Y
1457870815.2,286046997.6,P
1457870835.0,286046994.2,N
1457870835.9,286046994.2,N
1457870855.8,286046995.6,N
1457870875.6,286046997.6,N
1457870895.4,286046997.7,N
1457870915.3,286046993.9,N
1457870935.1,286046992.4,Y
1457870955.8,286046995.8,P
1457870975.7,286046997.7,P
1457870995.5,286046995.7,P
1457871015.3,286046997.5,N
1457871035.2,286047000.7,N
1457871055.9,286046999.5,N
1457871075.7,286046995.1,N
1457871095.6,286046998.7,N
1457871115.4,286046996.7,N
1457871135.2,286046995.8,N
1457871155.0,286046996.3,N
1457871155.9,286046996.3,N
1457871175.8,286046990.2,Y
1457871195.6,286046993.3,P
1457871215.4,286046998.9,N
1457871235.3,286046995.3,N
1457871255.1,286046995.8,N
1457871275.8,286046996.7,N
1457871295.7,286046993.4,Y
1457871315.5,286047001.2,P
1457871335.3,286047003.1,N
1457871355.2,286047002.9,N
1457871375.0,286047002.5,N
1457871375.9,286047002.5,N
1457871395.7,286047002.5,N
1457871415.6,286047001.6,N
1457871435.4,286047001.9,N
1457871455.2,286047001.0,N
1457871475.1,286047002.0,N
1457871476.0,286047002.0,N
1457871495.8,286047004.8,N
1457871515.6,286047008.3,Y
1457871535.5,286047004.5,P
1457871555.3,286047001.9,N
1457871575.1,286047009.2,P
1457871595.9,286047008.6,N
1457871615.7,286047010.4,Y
1457871635.5,286047006.2,P
1457871655.4,286047012.2,P
1457871675.2,286047010.5,P
1457871695.0,286047009.6,Y
1457871695.9,286047009.6,P
1457871715.8,286047005.2,P
1457871735.6,286047012.3,P
1457871755.4,286047017.1,Y
1457871775.3,286047006.6,P
1457871795.1,286047006.6,P
1457871796.0,286047006.6,P
1457871815.8,286047008.4,Y
1457871835.7,286046999.0,P
1457871855.5,286046999.3,N
1457871875.3,286047000.7,N
1457871895.2,286047000.9,N
1457871915.9,286046998.9,N
1457871935.7,286046996.5,N
1457871955.6,286046994.9,N
1457871975.4,286046997.2,N
1457871995.2,286046995.5,N
1457872015.0,286046997.8,N
1457872016.0,286046997.8,N
1457872035.8,286046997.6,N
1457872055.6,286046995.5,N
1457872075.4,286047000.6,N
1457872095.3,286047002.4,N
1457872115.1,286047002.1,N
1457872135.9,286047001.7,N
1457872155.7,286047005.9,N
1457872175.5,286047003.6,N
1457872195.4,286047000.7,N
1457872215.2,286047002.6,N
1457872235.0,286047004.1,N
1457872235.9,286047004.1,N
1457872255.8,286047002.6,N
1457872275.6,286046999.9,N
1457872295.4,286046998.7,N
1457872315.3,286046996.9,N
1457872335.1,286046996.5,N
1457872336.0,286046996.5,N
1457872355.8,286046995.4,N
1457872375.6,286046996.1,N
1457872395.5,286046996.4,N
1457872415.3,286046993.4,N
1457872435.1,286046996.3,N
1457872455.9,286046992.3,N
1457872475.7,286046990.4,N
1457872495.5,286046992.8,N
1457872515.4,286046990.9,N
1457872535.2,286046987.3,Y
1457872555.0,286046989.1,P
1457872555.9,286046989.1,N
1457872575.8,286046983.9,P
1457872595.6,286046985.7,N
1457872615.4,286046984.5,Y
1457872635.3,286046992.3,P
1457872655.1,286046992.8,P
1457872675.8,286046991.3,P
1457872695.7,286046986.9,Y
1457872715.5,286046998.9,P
1457872735.3,286046997.3,N
1457872755.2,286046994.9,N
1457872775.9,286046995.3,N
1457872795.7,286046995.8,N
1457872815.6,286046996.1,N
1457872835.4,286046993.6,N
1457872855.2,286046993.3,Y
1457872875.1,286046999.7,P
1457872876.0,286046999.7,N
1457872895.8,286047005.7,N
1457872915.6,286047005.9,N
1457872935.5,286047008.3,N
1457872955.3,286047006.7,N
1457872975.1,286047006.4,N
1457872995.8,286047010.5,N
1457873015.7,286047009.8,N
1457873035.5,286047014.6,Y
1457873055.3,286047011.0,P
1457873075.2,286047011.9,P
1457873095.0,286047010.2,P
1457873095.9,286047010.2,Y
1457873115.8,286046998.5,P
1457873135.6,286046998.7,N
1457873155.4,286047001.0,N
1457873175.2,286046998.3,N
1457873195.1,286046998.7,N
1457873196.0,286046998.7,N
1457873215.8,286047001.6,N
1457873235.6,286047006.0,N
1457873255.5,286047003.6,N
1457873275.3,286047003.6,N
1457873295.1,286047004.0,N
1457873315.9,286047003.2,N
1457873335.7,286047004.8,N
1457873355.5,286047010.6,Y
1457873375.4,286047010.6,P
1457873395.2,286047010.6,N
1457873415.0,286047008.1,N
1457873415.9,286047008.1,N
1457873435.8,286047009.7,Y
1457873455.6,286047007.6,P
1457873475.4,286047008.0,P
1457873495.3,286047008.1,P
1457873515.1,286047012.3,Y
1457873535.8,286047002.0,P
1457873555.7,286047000.2,N
1457873575.5,286047001.1,N
1457873595.3,286047002.7,N
1457873615.2,286047001.4,N
1457873635.9,286047002.9,N
1457873655.7,286047007.5,Y
1457873675.6,286047003.6,P
1457873695.4,286047003.7,P
1457873715.2,286047003.6,P
1457873735.1,286047005.3,Y
1457873736.0,286047005.3,P
1457873755.8,286046998.4,N
1457873775.6,286047002.2,N
1457873795.5,286047001.8,N
1457873815.3,286047002.6,N
1457873835.1,286047004.3,N
1457873855.9,286047003.5,N
1457873875.7,286047001.6,N
1457873895.5,286046999.7,N
1457873915.3,286047000.7,N
1457873935.2,286047002.2,N
1457873955.0,286047001.2,N
1457873955.9,286047001.2,N
1457873975.7,286046998.0,N
1457873995.6,286046996.3,N
